Regional Weather Roundup
Issued by NWS

Home | Current Version | Previous Version | Graphics & Text | Print | Product List | Glossary On
Versions: 1 2 3 4 5 6 7 8 9 10 11 12 13 14 15 16 17 18 19 20 21 22 23 24 25 26 27 28 29 30 31 32 33 34 35 36 37 38 39 40 41 42 43 44 45 46 47 48 49 50
589
ASUS43 KFSD 272302
RWRSD

WEATHER ROUNDUP FOR SOUTH DAKOTA
NATIONAL WEATHER SERVICE SIOUX FALLS SD
600 PM CDT WED JUL 27 2016

NOTE: "FAIR" INDICATES FEW OR NO CLOUDS BELOW 12,000 FEET WITH NO
SIGNIFICANT WEATHER AND/OR OBSTRUCTIONS TO VISIBILITY.


SDZ001>005-009-010-012>017-280000-
NORTHWEST AND NORTH CENTRAL SOUTH DAKOTA

CITY           SKY/WX    TMP DP  RH WIND       PRES   REMARKS
BUFFALO          N/A     76  54  46 E7        30.06S
FAITH            N/A     72  61  68 N13       30.10R
MOBRIDGE       CLOUDY    80  59  48 E6        30.06S
$$

SDZ012>016-024>037-041>051-057-063-072>074-280000-
SOUTHWEST AND SOUTH CENTRAL SOUTH DAKOTA

CITY           SKY/WX    TMP DP  RH WIND       PRES   REMARKS
RAPID CTY ARPT SUNNY     79  61  53 NE12      30.11F
PIERRE         CLOUDY    85  59  41 NE9       30.02S
CUSTER         MOSUNNY   71  58  63 E13       30.24F
PHILIP         CLOUDY    65  62  90 NE12      30.06F
PINE RIDGE     SUNNY     82  61  48 NE8       30.09F
WINNER         LGT RAIN  77  66  68 E9        30.01F
$$

SDZ004>011-016>023-039-040-280000-
NORTHEAST SOUTH DAKOTA

CITY           SKY/WX    TMP DP  RH WIND       PRES   REMARKS
ABERDEEN       SUNNY     79  59  50 N9        30.04R
WATERTOWN      SUNNY     79  58  48 N17G23    30.03S
BROOKINGS      SUNNY     78  64  61 N13       30.01S
SISSETON         N/A     79  58  48 NE10      30.01F
$$

SDZ017-020-022-023-036>040-048>070-280000-
SOUTHEAST SOUTH DAKOTA

CITY           SKY/WX    TMP DP  RH WIND       PRES   REMARKS
SIOUX FALLS    MOSUNNY   81  64  56 N12       29.98F
HURON          MOSUNNY   83  62  49 N15       30.00R
CHAMBERLAIN    CLOUDY    83  63  50 NE6       30.03F
MITCHELL       CLOUDY    83  64  52 NE10      30.00R
YANKTON        SUNNY     86  61  42 W7        29.94S
$$

ABBREVIATIONS USED IN REMARKS
   TC - TEMPERATURE IN CELSIUS
  WCI - WIND CHILL INDEX
   HX - HEAT INDEX
  VSB - VISIBILITY





USA.gov is the U.S. government's official web portal to all federal, state and local government web resources and services.